Radiation Dose at Monitoring Post of Fukushima Daini Nuclear Power Station
Date,Time,MP-1(microSv/h),MP-2(microSv/h),MP-3(microSv/h),MP-4(microSv/h),MP-5(microSv/h),MP-6(microSv/h),MP-7(microSv/h),Wind Direction,Wind Velocity(m/s),Rain
2018/04/02,00:00,0.326,0.209,0.336,0.321,0.306,0.167,0.101,west-southwest,7.6,No
2018/04/02,00:10,0.326,0.209,0.339,0.322,0.306,0.169,0.100,west-southwest,10.0,No
2018/04/02,00:20,0.325,0.208,0.337,0.321,0.307,0.168,0.101,west-southwest,10.1,No
2018/04/02,00:30,0.326,0.208,0.337,0.321,0.305,0.168,0.102,west-southwest,9.8,No
2018/04/02,00:40,0.327,0.210,0.337,0.324,0.306,0.168,0.100,west-southwest,6.2,No
2018/04/02,00:50,0.325,0.209,0.335,0.321,0.306,0.166,0.101,west-southwest,4.3,No
2018/04/02,01:00,0.325,0.208,0.338,0.322,0.303,0.167,0.101,west-southwest,5.9,No
2018/04/02,01:10,0.327,0.208,0.336,0.321,0.307,0.167,0.100,west-southwest,4.5,No
2018/04/02,01:20,0.324,0.208,0.339,0.321,0.303,0.168,0.101,west-southwest,4.0,No
2018/04/02,01:30,0.326,0.208,0.336,0.323,0.306,0.168,0.101,northeast,0.9,No
2018/04/02,01:40,0.325,0.209,0.337,0.321,0.306,0.168,0.101,southeast,2.5,No
2018/04/02,01:50,0.326,0.208,0.339,0.321,0.304,0.168,0.102,southeast,3.6,No
2018/04/02,02:00,0.325,0.208,0.336,0.323,0.308,0.167,0.101,south-southeast,1.4,No
2018/04/02,02:10,0.325,0.210,0.338,0.322,0.305,0.167,0.102,south-southwest,1.4,No
2018/04/02,02:20,0.325,0.210,0.337,0.322,0.307,0.168,0.101,southeast,1.1,No
2018/04/02,02:30,0.326,0.208,0.337,0.320,0.307,0.167,0.101,south-southeast,0.8,No
2018/04/02,02:40,0.325,0.209,0.338,0.322,0.308,0.168,0.101,east,2.6,No
2018/04/02,02:50,0.327,0.206,0.336,0.322,0.306,0.167,0.101,east-northeast,0.7,No
2018/04/02,03:00,0.325,0.209,0.339,0.320,0.305,0.168,0.101,-,CALM,No
2018/04/02,03:10,0.325,0.208,0.336,0.323,0.307,0.168,0.102,east-northeast,1.2,No
2018/04/02,03:20,0.325,0.208,0.339,0.320,0.304,0.168,0.101,northeast,2.7,No
2018/04/02,03:30,0.325,0.208,0.338,0.322,0.305,0.167,0.101,northeast,2.8,No
2018/04/02,03:40,0.326,0.208,0.338,0.323,0.307,0.168,0.101,north-northwest,1.6,No
2018/04/02,03:50,0.327,0.208,0.339,0.321,0.304,0.167,0.101,-,CALM,No
2018/04/02,04:00,0.325,0.208,0.338,0.322,0.307,0.167,0.101,west-northwest,3.4,No
2018/04/02,04:10,0.327,0.208,0.339,0.323,0.305,0.168,0.101,southwest,2.7,No
2018/04/02,04:20,0.325,0.208,0.338,0.323,0.307,0.168,0.101,-,CALM,No
2018/04/02,04:30,0.326,0.208,0.337,0.324,0.305,0.168,0.101,northwest,1.4,No
2018/04/02,04:40,0.325,0.208,0.337,0.321,0.304,0.168,0.101,west-northwest,1.4,No
2018/04/02,04:50,0.324,0.207,0.337,0.322,0.307,0.167,0.101,west,0.7,No
2018/04/02,05:00,0.327,0.208,0.337,0.322,0.305,0.167,0.101,west-northwest,2.3,No
2018/04/02,05:10,0.325,0.208,0.338,0.321,0.306,0.168,0.101,west-northwest,3.6,No
2018/04/02,05:20,0.325,0.209,0.337,0.323,0.306,0.167,0.101,northwest,4.0,No
2018/04/02,05:30,0.323,0.208,0.338,0.321,0.307,0.167,0.101,north-northwest,2.2,No
2018/04/02,05:40,0.325,0.208,0.337,0.322,0.306,0.167,0.101,west-northwest,1.6,No
2018/04/02,05:50,0.327,0.209,0.338,0.321,0.306,0.168,0.100,north-northwest,2.3,No
2018/04/02,06:00,0.325,0.208,0.339,0.321,0.306,0.166,0.101,north-northeast,6.1,No
2018/04/02,06:10,0.325,0.209,0.338,0.322,0.304,0.168,0.101,north-northeast,7.9,No
2018/04/02,06:20,0.326,0.207,0.339,0.322,0.307,0.167,0.100,north-northeast,9.5,No
2018/04/02,06:30,0.324,0.207,0.338,0.321,0.304,0.166,0.101,north,7.2,No
2018/04/02,06:40,0.326,0.208,0.337,0.321,0.305,0.167,0.101,north,6.6,No
2018/04/02,06:50,0.325,0.208,0.337,0.320,0.307,0.167,0.100,north,6.3,No
2018/04/02,07:00,0.325,0.207,0.337,0.321,0.306,0.166,0.101,north-northeast,5.2,No
2018/04/02,07:10,0.327,0.209,0.339,0.320,0.308,0.166,0.101,north,5.8,No
2018/04/02,07:20,0.325,0.208,0.337,0.322,0.304,0.166,0.100,north-northeast,6.6,No
2018/04/02,07:30,0.327,0.208,0.336,0.320,0.307,0.166,0.100,north-northeast,6.8,No
2018/04/02,07:40,0.325,0.207,0.338,0.321,0.305,0.166,0.100,north-northeast,8.1,No
2018/04/02,07:50,0.324,0.207,0.336,0.319,0.305,0.167,0.100,north-northeast,4.4,No
2018/04/02,08:00,0.326,0.208,0.337,0.320,0.306,0.167,0.101,north-northeast,4.4,No
2018/04/02,08:10,0.323,0.208,0.336,0.318,0.303,0.167,0.101,north-northeast,5.5,No
2018/04/02,08:20,0.326,0.208,0.338,0.320,0.306,0.166,0.100,north-northeast,4.8,No
2018/04/02,08:30,0.323,0.206,0.337,0.318,0.303,0.168,0.101,north-northeast,2.8,No
2018/04/02,08:40,0.324,0.208,0.335,0.321,0.307,0.167,0.101,east-northeast,3.9,No
2018/04/02,08:50,0.324,0.207,0.339,0.319,0.303,0.168,0.101,east-northeast,3.8,No
2018/04/02,09:00,0.326,0.206,0.336,0.318,0.307,0.167,0.100,northeast,1.1,No
2018/04/02,09:10,0.324,0.207,0.339,0.320,0.303,0.167,0.101,northeast,3.2,No
2018/04/02,09:20,0.324,0.208,0.336,0.317,0.306,0.166,0.100,northeast,2.1,No
2018/04/02,09:30,0.324,0.207,0.337,0.319,0.304,0.167,0.100,north,3.4,No
2018/04/02,09:40,0.325,0.209,0.336,0.320,0.306,0.166,0.100,north,3.0,No
2018/04/02,09:50,0.325,0.207,0.336,0.320,0.304,0.167,0.101,north,2.7,No
2018/04/02,10:00,0.324,0.208,0.337,0.321,0.307,0.167,0.100,north-northeast,2.4,No
2018/04/02,10:10,0.327,0.208,0.337,0.321,0.305,0.166,0.102,north-northeast,0.7,No
2018/04/02,10:20,0.324,0.208,0.338,0.322,0.308,0.167,0.101,north-northeast,0.8,No
2018/04/02,10:30,0.326,0.210,0.336,0.322,0.304,0.167,0.101,north,1.2,No
2018/04/02,10:40,0.326,0.207,0.339,0.320,0.309,0.166,0.101,north-northeast,2.1,No
2018/04/02,10:50,0.326,0.209,0.338,0.322,0.303,0.167,0.101,north-northeast,1.9,No
2018/04/02,11:00,0.326,0.208,0.339,0.320,0.308,0.167,0.100,north,2.0,No
2018/04/02,11:10,0.326,0.209,0.337,0.323,0.304,0.167,0.101,-,CALM,No
2018/04/02,11:20,0.327,0.208,0.337,0.320,0.306,0.167,0.101,north-northeast,0.7,No
2018/04/02,11:30,0.323,0.207,0.339,0.322,0.304,0.166,0.100,north-northeast,2.3,No
2018/04/02,11:40,0.325,0.209,0.336,0.320,0.306,0.167,0.101,northeast,4.0,No
2018/04/02,11:50,0.324,0.207,0.339,0.321,0.306,0.169,0.101,north-northeast,3.2,No
2018/04/02,12:00,0.328,0.209,0.337,0.319,0.305,0.167,0.100,north-northeast,2.2,No
2018/04/02,12:10,0.325,0.207,0.338,0.323,0.305,0.167,0.100,north-northeast,1.9,No
2018/04/02,12:20,0.326,0.207,0.336,0.320,0.305,0.167,0.100,north-northeast,1.2,No
2018/04/02,12:30,0.326,0.208,0.338,0.321,0.306,0.166,0.101,north-northeast,3.6,No
2018/04/02,12:40,0.326,0.208,0.335,0.320,0.306,0.167,0.101,north-northeast,2.7,No
2018/04/02,12:50,0.325,0.209,0.337,0.321,0.304,0.167,0.100,north-northeast,4.6,No
2018/04/02,13:00,0.327,0.207,0.335,0.319,0.306,0.166,0.102,north-northeast,2.8,No
2018/04/02,13:10,0.324,0.208,0.338,0.318,0.303,0.167,0.100,north,3.2,No
2018/04/02,13:20,0.326,0.207,0.335,0.322,0.306,0.167,0.101,north,3.5,No
2018/04/02,13:30,0.324,0.208,0.337,0.318,0.305,0.166,0.100,north-northeast,2.5,No
2018/04/02,13:40,0.327,0.207,0.337,0.320,0.304,0.167,0.101,northeast,2.4,No
2018/04/02,13:50,0.324,0.208,0.336,0.322,0.307,0.166,0.100,east-northeast,1.3,No
2018/04/02,14:00,0.326,0.206,0.338,0.319,0.302,0.167,0.100,east,0.6,No
2018/04/02,14:10,0.324,0.209,0.337,0.319,0.307,0.166,0.101,east-northeast,1.1,No
2018/04/02,14:20,0.326,0.208,0.337,0.321,0.303,0.166,0.100,north,2.8,No
2018/04/02,14:30,0.323,0.208,0.336,0.317,0.305,0.166,0.101,northeast,1.1,No
2018/04/02,14:40,0.327,0.207,0.337,0.322,0.306,0.167,0.100,northeast,1.6,No
2018/04/02,14:50,0.326,0.208,0.338,0.321,0.304,0.166,0.100,northeast,0.6,No
2018/04/02,15:00,0.326,0.207,0.337,0.322,0.307,0.167,0.100,north-northeast,0.6,No
2018/04/02,15:10,0.324,0.208,0.339,0.321,0.305,0.167,0.100,north-northeast,2.2,No
2018/04/02,15:20,0.326,0.207,0.337,0.323,0.308,0.167,0.100,north,1.3,No
2018/04/02,15:30,0.325,0.209,0.336,0.323,0.304,0.166,0.100,north,2.5,No
2018/04/02,15:40,0.325,0.208,0.338,0.324,0.307,0.167,0.100,north-northeast,1.6,No
2018/04/02,15:50,0.325,0.207,0.338,0.322,0.304,0.166,0.100,north-northeast,1.6,No
2018/04/02,16:00,0.325,0.208,0.339,0.322,0.306,0.167,0.100,northeast,0.7,No
2018/04/02,16:10,0.325,0.209,0.339,0.322,0.304,0.166,0.100,north-northeast,2.3,No
2018/04/02,16:20,0.328,0.207,0.341,0.324,0.307,0.168,0.100,north-northeast,3.0,No
2018/04/02,16:30,0.325,0.208,0.337,0.320,0.304,0.167,0.101,northeast,2.7,No
2018/04/02,16:40,0.328,0.208,0.336,0.322,0.308,0.168,0.101,north-northeast,2.4,No
2018/04/02,16:50,0.326,0.208,0.339,0.322,0.304,0.167,0.100,northeast,0.6,No
2018/04/02,17:00,0.325,0.208,0.337,0.321,0.307,0.167,0.100,north-northeast,1.5,No
2018/04/02,17:10,0.325,0.208,0.339,0.322,0.306,0.167,0.101,north-northeast,1.4,No
2018/04/02,17:20,0.324,0.209,0.338,0.321,0.307,0.167,0.101,north-northeast,0.9,No
2018/04/02,17:30,0.327,0.208,0.339,0.322,0.307,0.168,0.100,northeast,1.3,No
2018/04/02,17:40,0.326,0.209,0.338,0.323,0.305,0.167,0.100,north,1.4,No
2018/04/02,17:50,0.328,0.209,0.337,0.322,0.307,0.167,0.100,north,0.9,No
2018/04/02,18:00,0.325,0.207,0.339,0.322,0.305,0.167,0.100,north-northeast,0.8,No
2018/04/02,18:10,0.325,0.209,0.337,0.320,0.307,0.168,0.100,northeast,0.9,No
2018/04/02,18:20,0.328,0.209,0.340,0.323,0.304,0.167,0.100,northeast,0.9,No
2018/04/02,18:30,0.324,0.209,0.337,0.321,0.307,0.167,0.100,-,CALM,No
2018/04/02,18:40,0.327,0.209,0.337,0.321,0.305,0.166,0.100,-,CALM,No
2018/04/02,18:50,0.326,0.208,0.338,0.323,0.305,0.166,0.101,-,CALM,No
2018/04/02,19:00,0.326,0.209,0.338,0.321,0.307,0.168,0.101,-,CALM,No
2018/04/02,19:10,0.327,0.208,0.338,0.323,0.305,0.167,0.100,-,CALM,No
2018/04/02,19:20,0.324,0.211,0.337,0.322,0.307,0.167,0.101,-,CALM,No
2018/04/02,19:30,0.326,0.208,0.339,0.322,0.304,0.168,0.100,-,CALM,No
2018/04/02,19:40,0.326,0.208,0.337,0.322,0.306,0.166,0.100,-,CALM,No
2018/04/02,19:50,0.325,0.209,0.338,0.321,0.306,0.167,0.100,-,CALM,No
2018/04/02,20:00,0.326,0.208,0.338,0.322,0.305,0.166,0.100,-,CALM,No
2018/04/02,20:10,0.325,0.208,0.338,0.321,0.308,0.167,0.101,-,CALM,No
2018/04/02,20:20,0.326,0.209,0.339,0.321,0.304,0.168,0.100,west-southwest,0.6,No
2018/04/02,20:30,0.326,0.209,0.338,0.322,0.306,0.166,0.100,west-southwest,0.9,No
2018/04/02,20:40,0.327,0.209,0.338,0.321,0.306,0.167,0.100,west-southwest,1.2,No
2018/04/02,20:50,0.327,0.208,0.338,0.323,0.306,0.166,0.101,southwest,1.3,No
2018/04/02,21:00,0.327,0.207,0.337,0.321,0.305,0.168,0.101,southwest,1.2,No
2018/04/02,21:10,0.326,0.210,0.338,0.321,0.304,0.167,0.101,southwest,1.2,No
2018/04/02,21:20,0.325,0.208,0.339,0.323,0.305,0.167,0.102,west-southwest,1.1,No
2018/04/02,21:30,0.327,0.209,0.337,0.321,0.303,0.168,0.101,-,CALM,No
2018/04/02,21:40,0.325,0.210,0.339,0.320,0.307,0.168,0.101,-,CALM,No
2018/04/02,21:50,0.326,0.208,0.338,0.322,0.305,0.167,0.101,-,CALM,No
2018/04/02,22:00,0.328,0.209,0.339,0.323,0.305,0.168,0.101,south-southwest,0.8,No
2018/04/02,22:10,0.325,0.208,0.339,0.321,0.307,0.167,0.102,south-southwest,1.3,No
2018/04/02,22:20,0.326,0.208,0.338,0.323,0.305,0.168,0.101,south,0.9,No
2018/04/02,22:30,0.327,0.210,0.339,0.322,0.307,0.168,0.101,south-southwest,2.0,No
2018/04/02,22:40,0.326,0.208,0.338,0.321,0.305,0.167,0.101,south-southwest,1.2,No
2018/04/02,22:50,0.326,0.208,0.337,0.323,0.304,0.168,0.102,-,CALM,No
2018/04/02,23:00,0.327,0.208,0.338,0.322,0.306,0.169,0.101,-,CALM,No
2018/04/02,23:10,0.325,0.209,0.339,0.322,0.305,0.167,0.100,-,CALM,No
2018/04/02,23:20,0.327,0.209,0.338,0.323,0.306,0.167,0.101,-,CALM,No
2018/04/02,23:30,0.324,0.209,0.339,0.322,0.307,0.167,0.101,-,CALM,No
2018/04/02,23:40,0.326,0.209,0.338,0.322,0.306,0.168,0.100,south-southwest,0.8,No
2018/04/02,23:50,0.328,0.209,0.338,0.322,0.307,0.168,0.101,south-southwest,1.8,No
